This demonstration page uses our WeatherBlox Daily Observations layout. Learn more.

Left ArrowRight Arrow

Hourly Observations for January 27, 2017

Temp ( °F °C ) Dew Point ( °F °C ) Humidity (%) Winds ( mph kmh ) Pressure ( in mb ) Visibility ( mi km ) Precip ( " mm )
12:59 am 00:59 Clear 44 6.7 27 -2.8 51 51 W 8 13 29.87 1012 10 16 0.00 0.00
1:59 am 01:59 Clear 43 6.1 27 -2.8 53 53 W 13 20 29.87 1012 10 16 0.00 0.00
2:59 am 02:59 Clear 42 5.6 27 -2.8 55 55 W 12 19 29.87 1012 10 16 0.00 0.00
3:59 am 03:59 Clear 41 5 27 -2.8 57 57 W 13 20 29.87 1012 10 16 0.00 0.00
4:59 am 04:59 Clear 40 4.4 27 -2.8 60 60 W 10 17 29.86 1011 10 16 0.00 0.00
5:59 am 05:59 Clear 40 4.4 27 -2.8 60 60 W 13 20 29.86 1011 10 16 0.00 0.00
6:59 am 06:59 Clear 40 4.4 28 -2.2 63 63 W 7 11 29.87 1012 10 16 0.00 0.00
7:59 am 07:59 Mostly Sunny 41 5 28 -2.2 60 60 W 9 15 29.89 1012 10 16 0.00 0.00
8:59 am 08:59 Mostly Sunny 42 5.6 28 -2.2 58 58 W 9 15 29.91 1013 10 16 0.00 0.00
9:59 am 09:59 Mostly Sunny 45 7.2 27 -2.8 49 49 W 13 20 29.91 1013 10 16 0.00 0.00
10:59 am 10:59 Mostly Sunny 48 8.9 26 -3.3 42 42 W 14 22 29.89 1012 10 16 0.00 0.00
11:59 am 11:59 Mostly Sunny 49 9.4 24 -4.4 38 38 WNW 14 22 29.85 1011 10 16 0.00 0.00
12:59 pm 12:59 Mostly Cloudy 48 8.9 24 -4.4 39 39 W 16 26 29.81 1009 10 16 0.00 0.00
1:59 pm 13:59 Mostly Cloudy 48 8.9 24 -4.4 39 39 W 16 26 29.79 1009 10 16 0.00 0.00
2:59 pm 14:59 Cloudy 47 8.3 24 -4.4 41 41 WNW 20 31 29.80 1009 10 16 0.00 0.00
3:59 pm 15:59 Mostly Cloudy 47 8.3 24 -4.4 41 41 W 22 35 29.82 1010 10 16 0.00 0.00
4:59 pm 16:59 Mostly Cloudy 46 7.8 24 -4.4 42 42 W 17 28 29.83 1010 10 16 0.00 0.00
5:59 pm 17:59 Partly Cloudy 45 7.2 23 -5 42 42 W 16 26 29.84 1011 10 16 0.00 0.00
6:59 pm 18:59 Mostly Clear 43 6.1 22 -5.6 43 43 W 16 26 29.86 1011 10 16 0.00 0.00
7:59 pm 19:59 Mostly Clear 42 5.6 23 -5 47 47 WNW 15 24 29.87 1012 10 16 0.00 0.00
8:59 pm 20:59 Mostly Clear 41 5 23 -5 49 49 WNW 20 31 29.88 1012 10 16 0.00 0.00
9:59 pm 21:59 Mostly Clear 40 4.4 21 -6.1 47 47 WNW 16 26 29.87 1012 10 16 0.00 0.00
10:59 pm 22:59 Mostly Clear 39 3.9 21 -6.1 48 48 WNW 10 17 29.88 1012 10 16 0.00 0.00
11:59 pm 23:59 Clear 38 3.3 22 -5.6 52 52 W 10 17 29.89 1012 10 16 0.00 0.00

Powered by AerisWeather